Akron Canton, OH

5:30 PM EDT on July 21, 2017 (GMT -0400)
Akron-Canton Regional

Weather History for KCAK - November, 2012

Change the Weather History Date:

Thursday, November 29, 2012

  Actual Average Record
Temperature  
Mean Temperature 35 °F 36 °F  
Max Temperature 45 °F 43 °F 67 °F (2005)
Min Temperature 24 °F 29 °F 3 °F (1976)
Degree Days  
Heating Degree Days 30 29  
Month to date heating degree days 737 675  
Since 1 July heating degree days 1272 1230  
Cooling Degree Days 0 0  
Month to date cooling degree days 0 0  
Year to date cooling degree days 1046 652  
Moisture  
Dew Point 22 °F    
Average Humidity 59    
Maximum Humidity 81    
Minimum Humidity 37    
Precipitation  
Precipitation 0.00 in 0.11 in 0.72 in (2005)
Month to date precipitation 0.75 3.19  
Year to date precipitation 33.72 36.67  
Snow  
Snow 0.00 in 0.20 in - ()
Month to date snowfall 0.5 2.8  
Since 1 July snowfall 0.5 3.2  
Since 1 September snowfall 0.5 3.2  
Snow Depth 0.00 in    
Sea Level Pressure  
Sea Level Pressure 30.34 in    
Wind  
Wind Speed 8 mph (SSW)    
Max Wind Speed 17 mph    
Max Gust Speed 22 mph    
Visibility 6 miles    
Events      
T = Trace of Precipitation, MM = Missing Value Source: NWS Daily Summary

Daily Weather History Graph

Daily Weather History Graph

Search for Another Location

Airport or City:

Trip Planner

Search our weather history database for the weather conditions in past years. The results will help you decide how hot, cold, wet, or windy it might be!

Date:

Astronomy

Nov. 29, 2012 Rise Set
Actual Time 7:29 AM EST 4:58 PM EST
Civil Twilight 6:59 AM EST 5:29 PM EST
Nautical Twilight 6:24 AM EST 6:03 PM EST
Astronomical Twilight 5:51 AM EST 6:36 PM EST
Moon 6:00 PM EST (11/29) 8:15 AM EST (11/29)
Length of Visible Light 10h 30m
Length of Day
9h 29m
Full, 99% of the Moon is Illuminated
Nov 29
Full
Dec 6
Last Quarter
Dec 13
New
Dec 20
First Quarter
Dec 28
Full

Hourly Weather History & Observations

Time (EST) Temp. Windchill Dew Point Humidity Pressure Visibility Wind Dir Wind Speed Gust Speed Precip Events Conditions
12:51 AM 25.0 °F 19.3 °F 19.9 °F 81% 30.37 in 6.0 mi SW 4.6 mph - N/A   Haze
1:51 AM 26.6 °F 20.0 °F 21.2 °F 80% 30.32 in 6.0 mi SW 5.8 mph - N/A   Haze
2:51 AM 24.8 °F 17.9 °F 19.4 °F 80% 30.33 in 5.0 mi SW 5.8 mph - N/A   Haze
3:51 AM 25.0 °F 18.1 °F 19.9 °F 81% 30.37 in 5.0 mi SSW 5.8 mph - N/A   Haze
4:51 AM 24.1 °F 17.0 °F 19.0 °F 81% 30.38 in 5.0 mi SSW 5.8 mph - N/A   Haze
5:51 AM 25.0 °F 17.1 °F 19.9 °F 81% 30.39 in 5.0 mi SW 6.9 mph - N/A   Haze
6:51 AM 25.0 °F 17.1 °F 19.9 °F 81% 30.39 in 5.0 mi SSW 6.9 mph - N/A   Haze
7:51 AM 24.1 °F 16.0 °F 19.9 °F 84% 30.40 in 4.0 mi SSW 6.9 mph - N/A   Scattered Clouds
8:51 AM 30.0 °F 23.2 °F 24.1 °F 79% 30.39 in 4.0 mi SSW 6.9 mph - N/A   Haze
9:51 AM 34.0 °F 27.2 °F 26.1 °F 73% 30.40 in 4.0 mi SW 8.1 mph - N/A   Haze
10:51 AM 37.9 °F 31.5 °F 26.1 °F 62% 30.38 in 5.0 mi SW 9.2 mph - N/A   Haze
11:51 AM 42.1 °F 36.6 °F 26.1 °F 53% 30.36 in 5.0 mi SSW 9.2 mph - N/A   Haze
12:51 PM 44.1 °F 37.1 °F 21.9 °F 42% 30.33 in 7.0 mi SW 15.0 mph - N/A   Scattered Clouds
1:51 PM 44.1 °F 37.7 °F 19.9 °F 38% 30.31 in 7.0 mi SW 12.7 mph - N/A   Partly Cloudy
2:51 PM 45.0 °F 39.7 °F 21.9 °F 40% 30.29 in 7.0 mi SSW 10.4 mph - N/A   Partly Cloudy
3:51 PM 44.1 °F 38.1 °F 21.9 °F 42% 30.28 in 7.0 mi SSW 11.5 mph - N/A   Partly Cloudy
4:51 PM 39.9 °F 33.4 °F 21.9 °F 49% 30.29 in 7.0 mi SSW 10.4 mph - N/A   Partly Cloudy
5:51 PM 35.1 °F 30.1 °F 21.0 °F 57% 30.29 in 8.0 mi SSW 5.8 mph - N/A   Partly Cloudy
6:51 PM 35.1 °F 28.6 °F 21.9 °F 59% 30.30 in 8.0 mi SSW 8.1 mph - N/A   Partly Cloudy
7:51 PM 33.1 °F 26.9 °F 21.0 °F 61% 30.30 in 8.0 mi SSW 6.9 mph - N/A   Clear
8:51 PM 33.1 °F 26.9 °F 21.0 °F 61% 30.30 in 8.0 mi SSW 6.9 mph - N/A   Clear
9:51 PM 33.1 °F 27.7 °F 21.0 °F 61% 30.30 in 8.0 mi SSW 5.8 mph - N/A   Clear
10:51 PM 32.0 °F 25.6 °F 21.0 °F 64% 30.29 in 8.0 mi South 6.9 mph - N/A   Clear
11:51 PM 34.0 °F 31.0 °F 21.9 °F 61% 30.29 in 8.0 mi South 3.5 mph - N/A   Clear